When you browse on this site, cookies collect data to enhance your experience and personalize the content and advertising you see.
Visit our Privacy Policy to learn more. By continuing to use the site, you agree to this use of cookies and data.
  • In Switzerland
  • List of Countries
  • For 7 days
  • Water Temperature
  • Weather Map
  • Weather Widgets
  • user-avatar
    Login

    Hourly Weather Kaprun

    Today, 1 June, Monday

    Time Temperature Precipitation Wind Pressure Humidity
    00:00 0°C° 0 mm 1 mps 597 mmHg 94%
    01:00 0°C° 0 mm 1 mps 596 mmHg 94%
    02:00 0°C° 0 mm 1 mps 596 mmHg 94%
    03:00 0°C° 0 mm 1 mps 596 mmHg 93%
    04:00 0°C° 0 mm 1 mps 596 mmHg 92%
    05:00 +2°C° 0 mm 1 mps 597 mmHg 86%
    06:00 +4°C° 0 mm 1 mps 598 mmHg 81%
    07:00 +6°C° 0 mm 1 mps 599 mmHg 75%
    08:00 +8°C° 0 mm 1 mps 599 mmHg 69%
    09:00 +9°C° 0 mm 1 mps 600 mmHg 63%
    10:00 +11°C° 0 mm 1 mps 601 mmHg 56%
    11:00 +12°C° 0 mm 2 mps 601 mmHg 54%
    12:00 +13°C° 0 mm 2 mps 601 mmHg 52%
    13:00 +13°C° 0 mm 2 mps 601 mmHg 50%
    14:00 +13°C° 0.1 mm 2 mps 601 mmHg 52%
    15:00 +13°C° 0.1 mm 2 mps 601 mmHg 53%
    16:00 +12°C° 0.1 mm 3 mps 601 mmHg 55%
    17:00 +10°C° 0.1 mm 2 mps 600 mmHg 65%
    18:00 +9°C° 0.1 mm 2 mps 599 mmHg 75%
    19:00 +7°C° 0.1 mm 2 mps 599 mmHg 84%
    20:00 +7°C° 0 mm 1 mps 598 mmHg 88%
    21:00 +5°C° 0 mm 1 mps 598 mmHg 92%
    22:00 +4°C° 0 mm 1 mps 598 mmHg 96%
    23:00 +3°C° 0 mm 1 mps 597 mmHg 96%

    Tomorrow, 2 June, Tuesday

    Time Temperature Precipitation Wind Pressure Humidity
    00:00 +3°C° 0 mm 1 mps 597 mmHg 95%
    01:00 +2°C° 0 mm 1 mps 597 mmHg 94%
    02:00 +2°C° 0 mm 1 mps 596 mmHg 93%
    03:00 +2°C° 0 mm 1 mps 596 mmHg 91%
    04:00 +1°C° 0 mm 1 mps 596 mmHg 90%
    05:00 +3°C° 0 mm 1 mps 597 mmHg 83%
    06:00 +6°C° 0 mm 1 mps 597 mmHg 76%
    07:00 +8°C° 0 mm 1 mps 598 mmHg 68%
    08:00 +8°C° 0 mm 2 mps 599 mmHg 62%
    09:00 +10°C° 0 mm 2 mps 599 mmHg 55%
    10:00 +12°C° 0 mm 2 mps 600 mmHg 48%
    11:00 +12°C° 0 mm 3 mps 600 mmHg 46%
    12:00 +12°C° 0 mm 3 mps 600 mmHg 43%
    13:00 +13°C° 0 mm 3 mps 600 mmHg 41%
    14:00 +12°C° 0.1 mm 3 mps 599 mmHg 43%
    15:00 +12°C° 0.1 mm 3 mps 599 mmHg 46%
    16:00 +12°C° 0.1 mm 3 mps 598 mmHg 48%
    17:00 +10°C° 0.1 mm 3 mps 597 mmHg 57%
    18:00 +9°C° 0.1 mm 2 mps 597 mmHg 65%
    19:00 +7°C° 0.1 mm 2 mps 596 mmHg 74%
    20:00 +5°C° 0 mm 2 mps 595 mmHg 80%
    21:00 +4°C° 0 mm 2 mps 594 mmHg 86%
    22:00 +3°C° 0 mm 1 mps 594 mmHg 93%
    23:00 +2°C° 0 mm 1 mps 594 mmHg 92%

    Day after tomorrow, 3 June, Wednesday

    Time Temperature Precipitation Wind Pressure Humidity
    00:00 +2°C° 0 mm 1 mps 593 mmHg 90%
    01:00 +2°C° 0 mm 1 mps 593 mmHg 89%
    02:00 +2°C° 0 mm 1 mps 593 mmHg 87%
    03:00 +1°C° 0 mm 1 mps 592 mmHg 84%
    04:00 +1°C° 0 mm 1 mps 592 mmHg 81%
    05:00 +4°C° 0 mm 1 mps 593 mmHg 72%
    06:00 +6°C° 0 mm 1 mps 594 mmHg 63%
    07:00 +7°C° 0 mm 0 mps 595 mmHg 54%
    08:00 +9°C° 0 mm 0 mps 595 mmHg 48%
    09:00 +12°C° 0 mm 1 mps 596 mmHg 42%
    10:00 +13°C° 0 mm 1 mps 596 mmHg 36%
    11:00 +14°C° 0 mm 1 mps 596 mmHg 35%
    12:00 +15°C° 0 mm 1 mps 596 mmHg 34%
    13:00 +15°C° 0 mm 1 mps 596 mmHg 33%
    14:00 +15°C° 0.2 mm 1 mps 595 mmHg 39%
    15:00 +14°C° 0.2 mm 1 mps 595 mmHg 45%
    16:00 +14°C° 0.2 mm 1 mps 594 mmHg 50%
    17:00 +12°C° 0.4 mm 1 mps 594 mmHg 60%
    18:00 +11°C° 0.4 mm 1 mps 593 mmHg 70%
    19:00 +9°C° 0.4 mm 1 mps 592 mmHg 80%
    20:00 +8°C° 0.1 mm 1 mps 592 mmHg 83%
    21:00 +6°C° 0.1 mm 2 mps 591 mmHg 86%
    22:00 +4°C° 0.1 mm 2 mps 591 mmHg 89%
    23:00 +4°C° 0 mm 2 mps 591 mmHg 90%

    4 June, Thursday

    Time Temperature Precipitation Wind Pressure Humidity
    00:00 +4°C° 0 mm 2 mps 591 mmHg 90%
    01:00 +4°C° 0 mm 3 mps 590 mmHg 91%
    02:00 +4°C° 0 mm 2 mps 590 mmHg 91%
    03:00 +4°C° 0 mm 2 mps 590 mmHg 91%
    04:00 +4°C° 0 mm 2 mps 590 mmHg 91%
    05:00 +5°C° 0 mm 2 mps 590 mmHg 87%
    06:00 +6°C° 0 mm 2 mps 591 mmHg 83%
    07:00 +7°C° 0 mm 2 mps 591 mmHg 80%
    08:00 +9°C° 0 mm 2 mps 592 mmHg 75%
    09:00 +11°C° 0 mm 1 mps 592 mmHg 71%
    10:00 +12°C° 0 mm 1 mps 593 mmHg 66%
    11:00 +12°C° 0.4 mm 2 mps 592 mmHg 71%
    12:00 +10°C° 0.4 mm 2 mps 592 mmHg 76%
    13:00 +10°C° 0.4 mm 2 mps 592 mmHg 81%
    14:00 +9°C° 0.6 mm 2 mps 591 mmHg 85%
    15:00 +8°C° 0.6 mm 2 mps 591 mmHg 89%
    16:00 +8°C° 0.6 mm 2 mps 590 mmHg 93%
    17:00 +8°C° 1.5 mm 1 mps 590 mmHg 95%
    18:00 +7°C° 1.5 mm 1 mps 590 mmHg 96%
    19:00 +7°C° 1.5 mm 1 mps 590 mmHg 97%
    20:00 +7°C° 0.3 mm 1 mps 590 mmHg 98%
    21:00 +6°C° 0.3 mm 1 mps 590 mmHg 98%
    22:00 +6°C° 0.3 mm 1 mps 591 mmHg 99%
    23:00 +6°C° 0.4 mm 1 mps 591 mmHg 98%

    5 June, Friday

    Time Temperature Precipitation Wind Pressure Humidity
    00:00 +6°C° 0.4 mm 1 mps 590 mmHg 98%
    01:00 +6°C° 0.4 mm 1 mps 590 mmHg 98%
    02:00 +5°C° 0.1 mm 0 mps 590 mmHg 98%
    03:00 +4°C° 0.1 mm 0 mps 590 mmHg 98%
    04:00 +4°C° 0.1 mm 0 mps 590 mmHg 98%
    05:00 +5°C° 0.2 mm 0 mps 590 mmHg 97%
    06:00 +5°C° 0.2 mm 0 mps 591 mmHg 96%
    07:00 +6°C° 0.2 mm 0 mps 591 mmHg 94%
    08:00 +8°C° 0.3 mm 1 mps 592 mmHg 92%
    09:00 +8°C° 0.3 mm 1 mps 592 mmHg 90%
    10:00 +9°C° 0.3 mm 1 mps 593 mmHg 88%
    11:00 +10°C° 0.5 mm 1 mps 593 mmHg 84%
    12:00 +10°C° 0.5 mm 2 mps 593 mmHg 79%
    13:00 +13°C° 0.5 mm 2 mps 594 mmHg 74%
    14:00 +13°C° 0.7 mm 2 mps 593 mmHg 76%
    15:00 +13°C° 0.7 mm 2 mps 593 mmHg 77%
    16:00 +13°C° 0.7 mm 2 mps 593 mmHg 78%
    17:00 +12°C° 0.5 mm 2 mps 592 mmHg 83%
    18:00 +10°C° 0.5 mm 2 mps 592 mmHg 88%
    19:00 +9°C° 0.5 mm 2 mps 591 mmHg 93%
    20:00 +8°C° 0.4 mm 2 mps 591 mmHg 93%
    21:00 +7°C° 0.4 mm 2 mps 591 mmHg 94%
    22:00 +6°C° 0.4 mm 2 mps 591 mmHg 95%
    23:00 +6°C° 1.2 mm 2 mps 591 mmHg 96%

    6 June, Saturday

    Time Temperature Precipitation Wind Pressure Humidity
    00:00 +6°C° 1.2 mm 2 mps 591 mmHg 97%
    01:00 +7°C° 1.2 mm 1 mps 591 mmHg 97%
    02:00 +7°C° 1.4 mm 1 mps 591 mmHg 98%
    03:00 +7°C° 1.4 mm 1 mps 591 mmHg 98%
    04:00 +7°C° 1.4 mm 1 mps 590 mmHg 98%
    05:00 +7°C° 0.8 mm 1 mps 591 mmHg 98%
    06:00 +7°C° 0.8 mm 1 mps 591 mmHg 97%
    07:00 +7°C° 0.8 mm 1 mps 591 mmHg 97%
    08:00 +7°C° 0.4 mm 1 mps 591 mmHg 95%
    09:00 +8°C° 0.4 mm 1 mps 592 mmHg 93%
    10:00 +7°C° 0.4 mm 2 mps 592 mmHg 91%
    11:00 +8°C° 0.8 mm 1 mps 592 mmHg 92%
    12:00 +8°C° 0.8 mm 1 mps 592 mmHg 93%
    13:00 +7°C° 0.8 mm 1 mps 592 mmHg 94%
    14:00 +7°C° 0.5 mm 1 mps 592 mmHg 93%
    15:00 +7°C° 0.5 mm 1 mps 592 mmHg 93%
    16:00 +7°C° 0.5 mm 1 mps 592 mmHg 92%
    17:00 +7°C° 0.3 mm 1 mps 592 mmHg 93%
    18:00 +7°C° 0.3 mm 1 mps 592 mmHg 93%
    19:00 +7°C° 0.3 mm 1 mps 593 mmHg 94%
    20:00 +6°C° 0 mm 1 mps 593 mmHg 94%
    21:00 +5°C° 0 mm 1 mps 593 mmHg 95%
    22:00 +4°C° 0 mm 1 mps 593 mmHg 96%
    23:00 +3°C° 0 mm 0 mps 593 mmHg 96%
    Show more